Regional Weather Roundup
Issued by NWS

Home | Current Version | Previous Version | Text Only | Print | Product List | Glossary Off
Versions: 1 2 3 4 5 6 7 8 9 10 11 12 13 14 15 16 17 18 19 20 21 22 23 24 25 26 27 28 29 30 31 32 33 34 35 36 37 38 39 40 41 42 43 44 45 46 47 48 49 50

000
ASUS43 KDMX 261307
RWRIA

WEATHER ROUNDUP FOR IOWA
NATIONAL WEATHER SERVICE DES MOINES IA
700 AM CST WED NOV 26 2014

NOTE: "FAIR" INDICATES FEW OR NO CLOUDS BELOW 12,000 FEET WITH NO
SIGNIFICANT WEATHER AND/OR OBSTRUCTIONS TO VISIBILITY.

* - THESE STATIONS ARE NOT NWS STATIONS...THUS NOT UNDER NWS
QUALITY CONTROL.  THEY ALSO DO NOT REPORT WEATHER SUCH
AS PRECIPITATION OR FOG.

IAZ001>003-012>014-020>022-031>034-043>046-261400-
   NORTHWEST IOWA

CITY           SKY/WX    TMP DP  RH WIND       PRES   REMARKS
CARROLL *      CLOUDY    30  30 100 E7        29.85R WCI  23
CHEROKEE *     LGT SNOW  30  28  93 NE5       29.90R WCI  25
DENISON *      LGT SNOW  32  32 100 N6        29.84R WCI  26
LE MARS *      LGT RAIN  30  30 100 N14       29.93R WCI  20
ORANGE CITY *  LGT SNOW  30  27  86 N10       29.92R WCI  21
SHELDON *      CLOUDY    27  27 100 N16G22    29.92R WCI  14
SIOUX CITY     FLURRIES  35  33  92 N24       29.91R WCI  23
SPENCER        LGT SNOW  28  25  88 NE8       29.92R FOG     WCI  20
STORM LAKE *   LGT SNOW  28  27  93 E6        29.88R WCI  22
$$

IAZ055>058-069>071-079>083-090>094-261400-
   SOUTHWEST IOWA

CITY           SKY/WX    TMP DP  RH WIND       PRES   REMARKS
ATLANTIC *     CLOUDY    34  34 100 NW13      29.83R WCI  25
AUDUBON *      LGT SNOW  30  27  86 N3        29.84R
CLARINDA *     CLOUDY    36  34  93 W9        29.88R WCI  29
COUNCIL BLFS * MIX PCPN  37  37 100 NW14G25   29.85R WCI  29
CRESTON *      CLOUDY    34  34 100 W10       29.81S FOG     WCI  26
HARLAN  *      CLOUDY    34  34 100 NW16      29.87R WCI  23
LAMONI         CLOUDY    33  32  96 S9        29.84S WCI  25
RED OAK *      CLOUDY    37  34  87 NW15G21   29.85S WCI  28
SHENANDOAH *   CLOUDY    39  36  87 W13       29.88R WCI  32
$$

IAZ047>049-059>061-072>074-084-261400-
   CENTRAL IOWA

CITY           SKY/WX    TMP DP  RH WIND       PRES   REMARKS
AMES           LGT SNOW  26  24  92 E8        29.90R FOG     WCI  18
ANKENY *       CLOUDY    27  27 100 E8G15     29.89R WCI  18
CHARITON *     CLOUDY    30  28  93 SE13      29.87S WCI  20
DES MOINES     LGT SNOW  30  27  88 E10       29.88R FOG     WCI  21
GRINNELL*      LGT SNOW  27  23  86 E14G22    29.93S WCI  15
KNOXVILLE *    LGT SNOW  28  25  86 SE9       29.88F WCI  20
MARSHALLTOWN   CLOUDY    26  21  81 E16       29.93S WCI  14
PELLA *        LGT SNOW  28  23  80 SE8       29.92S WCI  20
PERRY *        LGT RAIN  30  30 100 E13       29.86R WCI  20
$$

IAZ004>006-015-016-023>025-035-036-261400-
   NORTH CENTRAL IOWA

CITY           SKY/WX    TMP DP  RH WIND       PRES   REMARKS
ALGONA *       LGT SNOW  27  25  93 E13       29.92R WCI  16
CLARION *      LGT SNOW  25  25 100 E16G23    29.91R WCI  12
ESTHERVILLE    LGT SNOW  25  24  96 NE8       29.93R FOG     WCI  16
FORT DODGE *   CLOUDY    27  23  86 E12       29.91R WCI  16
MASON CITY     LGT SNOW  24  21  88 E12       29.97R FOG     WCI  13
FOREST CITY *  LGT SNOW  27  25  93 E10       29.94R WCI  17
IOWA FALLS *   FLURRIES  27  21  80 E16       29.93S WCI  14
$$

IAZ007>011-017>019-026>030-037>042-050>054-066-261400-
   NORTHEAST IOWA

CITY           SKY/WX    TMP DP  RH WIND       PRES   REMARKS
CEDAR RAPIDS   MOCLDY    22  20  92 E14       30.00F WCI   9
CHARLES CITY * CLOUDY    25  21  86 E13       29.99R WCI  13
CLINTON *      MOCLDY    19  16  86 E10       30.11R WCI   8
DECORAH *      CLOUDY    19  16  86 E8        30.04S WCI   9
DUBUQUE        CLOUDY    20  18  92 SE8       30.06R WCI  10
MONTICELLO *   CLOUDY    21  19  93 E7        30.06S WCI  13
OELWEIN *      CLOUDY    23  19  86 E15       30.01S WCI  10
WATERLOO       CLOUDY    24  20  84 SE13      29.99R WCI  12
$$

IAZ064-065-067-068-078-261400-
   EAST CENTRAL IOWA

CITY           SKY/WX    TMP DP  RH WIND       PRES   REMARKS
DAVENPORT      CLOUDY    20  16  84 SE8       30.07S WCI  10
IOWA CITY      MOCLDY    24  20  84 E8        30.03F WCI  15
MT. PLEASANT * CLOUDY    27  23  86 SE10      30.00S WCI  17
MUSCATINE *    PTCLDY    25  21  86 SE6       30.05F WCI  18
QUAD CITIES    CLOUDY    19  16  88 E7        30.07S WCI  10
$$

IAZ062-063-075>077-085>089-095>099-261400-
   SOUTHEAST IOWA

CITY           SKY/WX    TMP DP  RH WIND       PRES   REMARKS
BURLINGTON     MOCLDY    27  24  89 SE13      30.01F WCI  16
FAIRFIELD *    CLOUDY    28  23  80 SE14      29.96F WCI  17
FORT MADISON * PTCLDY    30  25  80 SE12      30.01S WCI  21
KEOKUK *       CLOUDY    30  27  86 E14       29.99F WCI  20
OSKALOOSA *    FLURRIES  28  23  80 SE10      29.94R WCI  19
CENTERVILLE *  FLURRIES  28  28 100 SE8       29.91F WCI  20
OTTUMWA        CLOUDY    29  21  72 SE10      29.92F WCI  20
WASHINGTON *   CLOUDY    27  27 100 E13       30.00S WCI  16
$$

ABBREVIATIONS USED IN REMARKS
   TC - TEMPERATURES IN CELSIUS
  WCI - WIND CHILL INDEX
   HX - HEAT INDEX
  VSB - VISIBILITY
$$




USA.gov is the U.S. government's official web portal to all federal, state and local government web resources and services.